Zurück zum Katalog

STARLINK-35568

AktivKommunikationVLEO
NORAD 66473·PAYLOAD·🇺🇸 United States

Gestartet Nov 15, 2025 von Cape Canaveral Space Force Station

Loading…

Nächste Überflüge (nächste 24 Stunden)

TLE

AktuellSource: CelesTrak SupGP

Epoche: Sep 15, 2026, 02:51 UTC

1 66473C 25262T   26258.11923611  .00038076  00000+0  13786-2 0  2588
2 66473  43.0031 306.7589 0001704 272.4025  53.3517 15.27571998    10

Verfolge STARLINK-35568 in Echtzeit mit AllMySat

Download on the App Store